THY6805 LTFJ-LTFO

Flight info

Callsign THY6805
Flight time 1h 23m
Altitude 35000
Route LTFJ/24L N0445F350 VICE1X VICEN UT380 ASMAP UL333 LATGA UT363 GURBU UL615 SIV UW706 TBN UN37 ODZOL ODZO1L LTFO/06
Aircraft A321/M-CDT/C

Departure

Time 2026-05-07 13:58
Airport Istanbul Sabiha Gökçen International Airport (LTFJ)

Arrival

Time 2026-05-07 15:22
Airport Rize–Artvin Airport (LTFO)
Time Latitude Longitude Altitude Speed Heading
2026-05-07 13:43 40.89731 29.32364 308 ft 0 kts 67°
2026-05-07 13:54 40.89731 29.32365 306 ft 0 kts 76°
2026-05-07 13:54 40.89725 29.32369 307 ft 1 kts 147°
2026-05-07 13:55 40.89696 29.32360 306 ft 9 kts 190°
2026-05-07 13:55 40.89608 29.32344 308 ft 16 kts 182°
2026-05-07 13:55 40.89508 29.32443 310 ft 23 kts 92°
2026-05-07 13:55 40.89572 29.32654 308 ft 26 kts 66°
2026-05-07 13:56 40.89654 29.32868 307 ft 27 kts 62°
2026-05-07 13:56 40.89738 29.33084 305 ft 25 kts 62°
2026-05-07 13:56 40.89819 29.33298 304 ft 27 kts 65°
2026-05-07 13:56 40.89897 29.33523 306 ft 27 kts 65°
2026-05-07 13:57 40.89976 29.33733 313 ft 24 kts 62°
2026-05-07 13:57 40.89989 29.33920 316 ft 17 kts 149°
2026-05-07 13:57 40.89895 29.33981 319 ft 13 kts 169°
2026-05-07 13:57 40.89827 29.33908 318 ft 15 kts 240°
2026-05-07 13:58 40.89701 29.33561 309 ft 81 kts 244°
2026-05-07 13:58 40.89354 29.32609 302 ft 145 kts 244°
2026-05-07 13:58 40.88878 29.31275 664 ft 166 kts 245°
2026-05-07 13:58 40.88361 29.29879 1224 ft 172 kts 243°
2026-05-07 13:59 40.87486 29.28820 1683 ft 178 kts 206°
2026-05-07 13:59 40.86345 29.28203 2137 ft 178 kts 207°
2026-05-07 13:59 40.85274 29.27401 2588 ft 176 kts 216°
2026-05-07 13:59 40.84256 29.26507 3041 ft 175 kts 218°
2026-05-07 14:00 40.83229 29.25581 3504 ft 188 kts 218°
2026-05-07 14:00 40.82071 29.24531 3962 ft 214 kts 218°
2026-05-07 14:00 40.80773 29.23361 4415 ft 238 kts 217°
2026-05-07 14:00 40.79333 29.22071 4889 ft 257 kts 217°
2026-05-07 14:01 40.77787 29.20845 5446 ft 264 kts 206°
2026-05-07 14:01 40.75973 29.20312 6002 ft 273 kts 184°
2026-05-07 14:01 40.74076 29.20711 6566 ft 282 kts 161°
2026-05-07 14:01 40.72283 29.21796 7086 ft 286 kts 156°
2026-05-07 14:02 40.70484 29.22932 7624 ft 288 kts 156°
2026-05-07 14:02 40.68679 29.24110 8179 ft 291 kts 150°
2026-05-07 14:02 40.67060 29.25741 8735 ft 295 kts 135°
2026-05-07 14:02 40.65788 29.27868 9312 ft 298 kts 122°
2026-05-07 14:03 40.64683 29.30183 9891 ft 300 kts 122°
2026-05-07 14:03 40.63564 29.32515 10428 ft 304 kts 122°
2026-05-07 14:03 40.62407 29.34920 10970 ft 320 kts 122°
2026-05-07 14:03 40.61162 29.37498 11525 ft 338 kts 121°
2026-05-07 14:04 40.60074 29.40264 12074 ft 353 kts 110°
2026-05-07 14:04 40.59364 29.43458 12646 ft 365 kts 98°
2026-05-07 14:04 40.59154 29.46828 13222 ft 377 kts 86°
2026-05-07 14:04 40.59413 29.50303 13801 ft 388 kts 81°
2026-05-07 14:05 40.59754 29.53881 14345 ft 399 kts 81°
2026-05-07 14:05 40.60100 29.57553 14871 ft 411 kts 81°
2026-05-07 14:05 40.60452 29.61343 15408 ft 422 kts 81°
2026-05-07 14:05 40.60809 29.65212 15956 ft 432 kts 81°
2026-05-07 14:06 40.61172 29.69171 16526 ft 440 kts 81°
2026-05-07 14:06 40.61537 29.73195 17142 ft 445 kts 80°
2026-05-07 14:06 40.61907 29.77265 17787 ft 450 kts 80°
2026-05-07 14:06 40.62277 29.81376 18451 ft 454 kts 80°
2026-05-07 14:07 40.62650 29.85521 19032 ft 458 kts 80°
2026-05-07 14:07 40.63027 29.89703 19628 ft 462 kts 79°
2026-05-07 14:07 40.63404 29.93924 20236 ft 466 kts 79°
2026-05-07 14:07 40.63783 29.98175 20856 ft 469 kts 79°
2026-05-07 14:08 40.64161 30.02445 21482 ft 470 kts 79°
2026-05-07 14:08 40.64538 30.06716 22123 ft 469 kts 79°
2026-05-07 14:08 40.64912 30.10977 22780 ft 468 kts 79°
2026-05-07 14:08 40.65283 30.15231 23463 ft 466 kts 79°
2026-05-07 14:09 40.65651 30.19466 24060 ft 465 kts 79°
2026-05-07 14:09 40.66017 30.23687 24641 ft 463 kts 78°
2026-05-07 14:09 40.66370 30.27889 25234 ft 462 kts 80°
2026-05-07 14:09 40.66434 30.29321 25436 ft 463 kts 83°
2026-05-07 14:10 40.66254 30.34116 26134 ft 455 kts 92°
2026-05-07 14:10 40.65905 30.38185 26754 ft 439 kts 91°
2026-05-07 14:10 40.65564 30.42120 27254 ft 428 kts 91°
2026-05-07 14:10 40.65234 30.46036 27605 ft 434 kts 91°
2026-05-07 14:11 40.64910 30.50022 27870 ft 441 kts 91°
2026-05-07 14:11 40.64581 30.54128 28148 ft 448 kts 91°
2026-05-07 14:11 40.64248 30.58222 28416 ft 454 kts 91°
2026-05-07 14:11 40.63901 30.62393 28695 ft 460 kts 91°
2026-05-07 14:12 40.63545 30.66594 28971 ft 465 kts 91°
2026-05-07 14:12 40.63119 30.70845 29240 ft 473 kts 97°
2026-05-07 14:12 40.62320 30.75085 29532 ft 481 kts 101°
2026-05-07 14:12 40.61680 30.79387 29819 ft 480 kts 93°
2026-05-07 14:13 40.61210 30.83753 30101 ft 484 kts 93°
2026-05-07 14:13 40.60748 30.88150 30359 ft 486 kts 91°
2026-05-07 14:13 40.60680 30.92581 30606 ft 482 kts 82°
2026-05-07 14:13 40.60842 30.97001 30857 ft 486 kts 82°
2026-05-07 14:14 40.61014 31.01457 31105 ft 489 kts 82°
2026-05-07 14:14 40.61188 31.05942 31367 ft 492 kts 82°
2026-05-07 14:14 40.61359 31.10433 31740 ft 491 kts 82°
2026-05-07 14:14 40.61526 31.14907 32158 ft 488 kts 82°
2026-05-07 14:15 40.61687 31.19356 32673 ft 485 kts 82°
2026-05-07 14:15 40.61844 31.23768 33194 ft 480 kts 82°
2026-05-07 14:15 40.61999 31.28134 33737 ft 477 kts 82°
2026-05-07 14:15 40.62153 31.32477 34270 ft 473 kts 82°
2026-05-07 14:16 40.62302 31.36789 34747 ft 470 kts 83°
2026-05-07 14:16 40.62451 31.41075 35056 ft 470 kts 83°
2026-05-07 14:16 40.62604 31.45385 35132 ft 471 kts 83°
2026-05-07 14:17 40.62905 31.53990 35143 ft 470 kts 83°
2026-05-07 14:17 40.63193 31.62583 35140 ft 470 kts 83°
2026-05-07 14:18 40.63458 31.71178 35146 ft 470 kts 83°
2026-05-07 14:18 40.63728 31.79758 35143 ft 469 kts 83°
2026-05-07 14:19 40.63956 31.86950 35147 ft 469 kts 83°
2026-05-07 14:19 40.64216 31.95542 35148 ft 470 kts 83°
2026-05-07 14:20 40.64462 32.04131 35156 ft 470 kts 83°
2026-05-07 14:20 40.64704 32.12731 35160 ft 470 kts 83°
2026-05-07 14:21 40.64942 32.21319 35163 ft 470 kts 83°
2026-05-07 14:21 40.65177 32.29930 35161 ft 470 kts 83°
2026-05-07 14:22 40.65412 32.38527 35160 ft 470 kts 83°
2026-05-07 14:22 40.65633 32.47135 35159 ft 470 kts 83°
2026-05-07 14:23 40.65845 32.55741 35156 ft 470 kts 83°
2026-05-07 14:23 40.66052 32.64348 35159 ft 470 kts 83°
2026-05-07 14:24 40.66257 32.73015 35148 ft 470 kts 83°
2026-05-07 14:24 40.66452 32.81632 35157 ft 471 kts 83°
2026-05-07 14:25 40.66633 32.90258 35153 ft 471 kts 83°
2026-05-07 14:25 40.66816 32.98882 35163 ft 471 kts 83°
2026-05-07 14:26 40.66999 33.07501 35159 ft 471 kts 83°
2026-05-07 14:26 40.67170 33.16110 35155 ft 471 kts 83°
2026-05-07 14:27 40.67327 33.24738 35156 ft 470 kts 84°
2026-05-07 14:27 40.67487 33.33342 35149 ft 470 kts 84°
2026-05-07 14:28 40.67641 33.41934 35149 ft 469 kts 84°
2026-05-07 14:28 40.67783 33.50527 35146 ft 469 kts 84°
2026-05-07 14:29 40.67921 33.59125 35146 ft 469 kts 84°
2026-05-07 14:29 40.68050 33.67713 35142 ft 468 kts 84°
2026-05-07 14:30 40.68173 33.76288 35144 ft 468 kts 84°
2026-05-07 14:30 40.68289 33.84860 35146 ft 468 kts 84°
2026-05-07 14:31 40.68397 33.93430 35138 ft 467 kts 84°
2026-05-07 14:31 40.68504 34.01986 35143 ft 467 kts 84°
2026-05-07 14:32 40.68614 34.10557 35139 ft 468 kts 84°
2026-05-07 14:32 40.68709 34.19176 35142 ft 468 kts 85°
2026-05-07 14:33 40.68788 34.27747 35141 ft 468 kts 85°
2026-05-07 14:33 40.68865 34.36322 35141 ft 468 kts 85°
2026-05-07 14:34 40.68941 34.44893 35138 ft 468 kts 85°
2026-05-07 14:34 40.69015 34.53465 35141 ft 468 kts 85°
2026-05-07 14:35 40.69076 34.62035 35138 ft 467 kts 85°
2026-05-07 14:35 40.69120 34.70598 35137 ft 467 kts 85°
2026-05-07 14:36 40.69164 34.79159 35146 ft 467 kts 85°
2026-05-07 14:36 40.69211 34.87715 35143 ft 467 kts 85°
2026-05-07 14:37 40.69250 34.96272 35143 ft 467 kts 85°
2026-05-07 14:37 40.69298 35.09111 35140 ft 467 kts 85°
2026-05-07 14:38 40.69314 35.17667 35141 ft 467 kts 86°
2026-05-07 14:38 40.69318 35.26227 35137 ft 467 kts 85°
2026-05-07 14:39 40.69322 35.34774 35138 ft 467 kts 85°
2026-05-07 14:39 40.69327 35.43384 35133 ft 467 kts 85°
2026-05-07 14:40 40.69324 35.51933 35141 ft 466 kts 85°
2026-05-07 14:40 40.69311 35.60476 35134 ft 466 kts 85°
2026-05-07 14:41 40.69295 35.69018 35138 ft 466 kts 85°
2026-05-07 14:41 40.69271 35.77558 35138 ft 466 kts 86°
2026-05-07 14:42 40.69231 35.86092 35141 ft 466 kts 86°
2026-05-07 14:42 40.69197 35.94626 35145 ft 466 kts 86°
2026-05-07 14:43 40.69156 36.03153 35144 ft 465 kts 86°
2026-05-07 14:43 40.69103 36.11679 35151 ft 466 kts 86°
2026-05-07 14:44 40.69047 36.20213 35157 ft 465 kts 86°
2026-05-07 14:44 40.68988 36.28731 35154 ft 465 kts 87°
2026-05-07 14:45 40.68920 36.37239 35151 ft 464 kts 87°
2026-05-07 14:45 40.68845 36.45746 35155 ft 464 kts 87°
2026-05-07 14:46 40.68769 36.54245 35159 ft 464 kts 88°
2026-05-07 14:46 40.68680 36.62732 35158 ft 463 kts 88°
2026-05-07 14:47 40.68586 36.71225 35161 ft 463 kts 88°
2026-05-07 14:47 40.68486 36.79768 35159 ft 463 kts 88°
2026-05-07 14:48 40.68384 36.88247 35160 ft 463 kts 88°
2026-05-07 14:48 40.68275 36.96726 35167 ft 463 kts 88°
2026-05-07 14:49 40.68153 37.05198 35170 ft 463 kts 88°
2026-05-07 14:49 40.68027 37.13671 35173 ft 462 kts 88°
2026-05-07 14:50 40.67900 37.22140 35175 ft 462 kts 88°
2026-05-07 14:50 40.67761 37.30611 35179 ft 462 kts 88°
2026-05-07 14:51 40.67640 37.37646 35187 ft 462 kts 88°
2026-05-07 14:51 40.67489 37.46092 35161 ft 461 kts 89°
2026-05-07 14:52 40.67333 37.54541 35169 ft 461 kts 89°
2026-05-07 14:52 40.67182 37.62982 35170 ft 461 kts 89°
2026-05-07 14:53 40.67026 37.71487 35169 ft 461 kts 89°
2026-05-07 14:53 40.66852 37.79875 35168 ft 461 kts 89°
2026-05-07 14:54 40.66666 37.88374 35172 ft 461 kts 89°
2026-05-07 14:54 40.66476 37.96826 35180 ft 462 kts 89°
2026-05-07 14:55 40.66284 38.05272 35186 ft 462 kts 89°
2026-05-07 14:55 40.66090 38.13728 35187 ft 462 kts 90°
2026-05-07 14:56 40.65887 38.22174 35190 ft 462 kts 90°
2026-05-07 14:56 40.65781 38.26401 34945 ft 462 kts 90°
2026-05-07 14:56 40.65676 38.30626 34559 ft 460 kts 90°
2026-05-07 14:57 40.65570 38.34810 34165 ft 456 kts 89°
2026-05-07 14:57 40.65465 38.38967 33707 ft 451 kts 89°
2026-05-07 14:57 40.65360 38.43078 33247 ft 447 kts 89°
2026-05-07 14:57 40.65255 38.47138 32798 ft 443 kts 89°
2026-05-07 14:58 40.65148 38.51168 32353 ft 438 kts 89°
2026-05-07 14:58 40.65039 38.55157 31919 ft 434 kts 89°
2026-05-07 14:58 40.64928 38.59109 31491 ft 429 kts 89°
2026-05-07 14:58 40.64817 38.63019 31069 ft 425 kts 89°
2026-05-07 14:59 40.64708 38.66898 30653 ft 422 kts 89°
2026-05-07 14:59 40.64599 38.70734 30239 ft 418 kts 89°
2026-05-07 14:59 40.64491 38.74538 29748 ft 414 kts 89°
2026-05-07 14:59 40.64381 38.78308 29258 ft 411 kts 89°
2026-05-07 15:00 40.64272 38.82050 28787 ft 408 kts 89°
2026-05-07 15:00 40.64316 38.85758 28329 ft 402 kts 82°
2026-05-07 15:00 40.64708 38.89370 27857 ft 397 kts 75°
2026-05-07 15:00 40.65430 38.92899 27403 ft 392 kts 68°
2026-05-07 15:01 40.66448 38.96215 26954 ft 388 kts 61°
2026-05-07 15:01 40.67693 38.99343 26513 ft 385 kts 59°
2026-05-07 15:01 40.68951 39.02447 26083 ft 383 kts 59°
2026-05-07 15:01 40.70197 39.05546 25647 ft 381 kts 59°
2026-05-07 15:02 40.71425 39.08623 25234 ft 378 kts 60°
2026-05-07 15:02 40.72646 39.11687 24839 ft 376 kts 60°
2026-05-07 15:02 40.73862 39.14730 24435 ft 374 kts 59°
2026-05-07 15:02 40.75073 39.17749 24037 ft 372 kts 60°
2026-05-07 15:03 40.76279 39.20764 23608 ft 370 kts 60°
2026-05-07 15:03 40.77476 39.23762 23149 ft 368 kts 60°
2026-05-07 15:03 40.78666 39.26741 22694 ft 366 kts 60°
2026-05-07 15:03 40.79846 39.29697 22245 ft 364 kts 60°
2026-05-07 15:04 40.81017 39.32645 21783 ft 361 kts 60°
2026-05-07 15:04 40.82177 39.35573 21343 ft 359 kts 60°
2026-05-07 15:04 40.83333 39.38489 20908 ft 357 kts 60°
2026-05-07 15:04 40.84483 39.41390 20481 ft 355 kts 60°
2026-05-07 15:05 40.85626 39.44270 20065 ft 353 kts 60°
2026-05-07 15:05 40.86761 39.47138 19650 ft 351 kts 60°
2026-05-07 15:05 40.87891 39.49994 19239 ft 350 kts 60°
2026-05-07 15:05 40.89014 39.52835 18841 ft 348 kts 60°
2026-05-07 15:06 40.90134 39.55665 18427 ft 346 kts 60°
2026-05-07 15:06 40.91244 39.58472 17972 ft 344 kts 60°
2026-05-07 15:06 40.92347 39.61272 17509 ft 342 kts 60°
2026-05-07 15:06 40.93441 39.64046 17066 ft 340 kts 60°
2026-05-07 15:07 40.94529 39.66809 16622 ft 337 kts 60°
2026-05-07 15:07 40.95605 39.69548 16192 ft 335 kts 61°
2026-05-07 15:07 40.96670 39.72273 15763 ft 332 kts 61°
2026-05-07 15:07 40.97729 39.74979 15339 ft 330 kts 60°
2026-05-07 15:08 40.98780 39.77661 14963 ft 326 kts 61°
2026-05-07 15:08 40.99809 39.80311 14649 ft 321 kts 62°
2026-05-07 15:08 41.00780 39.82992 14333 ft 316 kts 63°
2026-05-07 15:08 41.01685 39.85623 14019 ft 312 kts 64°
2026-05-07 15:09 41.02566 39.88233 13666 ft 308 kts 64°
2026-05-07 15:09 41.03433 39.90804 13325 ft 304 kts 64°
2026-05-07 15:09 41.04293 39.93345 13000 ft 300 kts 64°
2026-05-07 15:09 41.05143 39.95842 12712 ft 295 kts 64°
2026-05-07 15:10 41.05982 39.98304 12424 ft 290 kts 64°
2026-05-07 15:10 41.06806 40.00726 12141 ft 286 kts 64°
2026-05-07 15:10 41.07619 40.03114 11834 ft 283 kts 63°
2026-05-07 15:10 41.08427 40.05475 11559 ft 279 kts 63°
2026-05-07 15:11 41.09223 40.07795 11301 ft 275 kts 63°
2026-05-07 15:11 41.10005 40.10085 11054 ft 270 kts 63°
2026-05-07 15:11 41.10773 40.12339 10796 ft 266 kts 63°
2026-05-07 15:11 41.11533 40.14573 10518 ft 265 kts 63°
2026-05-07 15:12 41.12287 40.16793 10226 ft 263 kts 63°
2026-05-07 15:12 41.13037 40.18995 9917 ft 262 kts 63°
2026-05-07 15:12 41.13784 40.21186 9597 ft 260 kts 63°
2026-05-07 15:12 41.14526 40.23368 9282 ft 259 kts 63°
2026-05-07 15:13 41.15264 40.25543 8970 ft 258 kts 64°
2026-05-07 15:13 41.15999 40.27711 8655 ft 256 kts 64°
2026-05-07 15:13 41.16727 40.29862 8360 ft 255 kts 64°
2026-05-07 15:13 41.17451 40.32006 8065 ft 254 kts 64°
2026-05-07 15:14 41.18169 40.34136 7753 ft 253 kts 64°
2026-05-07 15:14 41.18883 40.36252 7488 ft 247 kts 64°
2026-05-07 15:14 41.19438 40.38381 7181 ft 243 kts 79°
2026-05-07 15:14 41.19469 40.40608 6883 ft 242 kts 98°
2026-05-07 15:15 41.18969 40.42725 6584 ft 240 kts 117°
2026-05-07 15:15 41.18007 40.44521 6289 ft 239 kts 132°
2026-05-07 15:15 41.16918 40.46175 5986 ft 238 kts 131°
2026-05-07 15:15 41.15831 40.47848 5672 ft 234 kts 131°
2026-05-07 15:16 41.14795 40.49448 5372 ft 229 kts 131°
2026-05-07 15:16 41.13754 40.51057 5087 ft 224 kts 131°
2026-05-07 15:16 41.12754 40.52602 4833 ft 218 kts 132°
2026-05-07 15:16 41.11779 40.54110 4572 ft 212 kts 130°
2026-05-07 15:17 41.11102 40.55811 4313 ft 208 kts 106°
2026-05-07 15:17 41.11000 40.57689 4084 ft 201 kts 83°
2026-05-07 15:17 41.11378 40.59415 3839 ft 191 kts 70°
2026-05-07 15:17 41.11804 40.61030 3580 ft 179 kts 71°
2026-05-07 15:18 41.12196 40.62535 3350 ft 164 kts 71°
2026-05-07 15:18 41.12553 40.63906 3104 ft 154 kts 71°
2026-05-07 15:18 41.12897 40.65231 2842 ft 150 kts 71°
2026-05-07 15:18 41.13234 40.66530 2584 ft 148 kts 71°
2026-05-07 15:19 41.13565 40.67809 2336 ft 146 kts 71°
2026-05-07 15:19 41.13893 40.69073 2083 ft 144 kts 71°
2026-05-07 15:19 41.14218 40.70323 1826 ft 143 kts 71°
2026-05-07 15:19 41.14538 40.71560 1572 ft 141 kts 71°
2026-05-07 15:20 41.14857 40.72792 1380 ft 141 kts 70°
2026-05-07 15:20 41.15175 40.74021 1168 ft 140 kts 70°
2026-05-07 15:20 41.15488 40.75235 970 ft 138 kts 70°
2026-05-07 15:20 41.15797 40.76430 801 ft 136 kts 70°
2026-05-07 15:21 41.16104 40.77619 656 ft 135 kts 68°
2026-05-07 15:21 41.16408 40.78794 503 ft 135 kts 69°
2026-05-07 15:21 41.16710 40.79964 379 ft 134 kts 68°
2026-05-07 15:21 41.17012 40.81132 254 ft 134 kts 69°
2026-05-07 15:22 41.17311 40.82297 159 ft 133 kts 69°
2026-05-07 15:22 41.17610 40.83462 58 ft 132 kts 69°
2026-05-07 15:22 41.17801 40.84163 60 ft 17 kts 73°
2026-05-07 15:22 41.17832 40.84310 55 ft 18 kts 72°
2026-05-07 15:23 41.17871 40.84470 57 ft 12 kts 67°
2026-05-07 15:23 41.17896 40.84534 56 ft 5 kts 110°
2026-05-07 15:23 41.17884 40.84523 56 ft 4 kts 237°
2026-05-07 15:23 41.17863 40.84473 58 ft 7 kts 240°
2026-05-07 15:24 41.17840 40.84440 58 ft 8 kts 210°
2026-05-07 15:24 41.17787 40.84437 53 ft 8 kts 168°
2026-05-07 15:24 41.17734 40.84460 60 ft 9 kts 165°
2026-05-07 15:24 41.17671 40.84487 63 ft 10 kts 157°
2026-05-07 15:25 41.17623 40.84512 61 ft 8 kts 160°
2026-05-07 15:25 41.17580 40.84533 60 ft 3 kts 160°
2026-05-07 15:25 41.17578 40.84534 60 ft 0 kts 160°